This is the latest recevied weather packets stored in our database for station/object 5B4APJ-13. If no packets are shown the sender has not sent any weather packets the latest 10 day(s).
| Time | Temp. | Humidity | Pressure | Rain* | Wind** | Luminosity | Snow |
|---|---|---|---|---|---|---|---|
| 1777966622 | 15° C | 56% | 1012.2 hPa | 0 mm | 4.47 m/s, 275° | 734 W/m² | - |
| 1777966323 | 15° C | 57% | 1012.4 hPa | 0 mm | 2.24 m/s, 295° | 724 W/m² | - |
| 1777966022 | 15° C | 57% | 1012.2 hPa | 0 mm | 2.24 m/s, 33° | 722 W/m² | - |
| 1777965723 | 13.89° C | 60% | 1012.2 hPa | 0 mm | 2.68 m/s, 1° | 585 W/m² | - |
| 1777965422 | 13.89° C | 59% | 1012.1 hPa | 0 mm | 3.13 m/s, 14° | 169 W/m² | - |
| 1777965122 | 13.89° C | 62% | 1012.2 hPa | 0 mm | 0.89 m/s, 1° | 139 W/m² | - |
| 1777964822 | 14.44° C | 64% | 1012.1 hPa | 0 mm | 1.34 m/s, 350° | 101 W/m² | - |
| 1777964522 | 14.44° C | 63% | 1012.2 hPa | 0 mm | 3.58 m/s, 50° | 95 W/m² | - |
| 1777964222 | 15° C | 60% | 1011.9 hPa | 0 mm | 3.58 m/s, 71° | 112 W/m² | - |
| 1777963923 | 15° C | 61% | 1012 hPa | 0 mm | 3.13 m/s, 32° | 679 W/m² | - |
| 1777963622 | 15° C | 61% | 1012.1 hPa | 0 mm | 2.24 m/s, 358° | 721 W/m² | - |
| 1777963322 | 15° C | 61% | 1011.8 hPa | 0 mm | 1.79 m/s, 57° | 686 W/m² | - |
| 1777963022 | 15° C | 63% | 1011.8 hPa | 0 mm | 1.34 m/s, 325° | 589 W/m² | - |
| 1777962722 | 14.44° C | 63% | 1011.7 hPa | 0 mm | 1.34 m/s, 67° | 172 W/m² | - |
| 1777962422 | 14.44° C | 65% | 1011.8 hPa | 0 mm | 0.89 m/s, 327° | 323 W/m² | - |
| 1777962122 | 14.44° C | 65% | 1011.8 hPa | 0 mm | 0.45 m/s, 4° | 199 W/m² | - |
| 1777961822 | 13.89° C | 65% | 1011.9 hPa | 0 mm | 1.34 m/s, 322° | 199 W/m² | - |
| 1777961523 | 14.44° C | 65% | 1011.6 hPa | 0 mm | 0.89 m/s, 32° | 188 W/m² | - |
| 1777961223 | 13.89° C | 66% | 1011.6 hPa | 0 mm | 0.89 m/s, 15° | 265 W/m² | - |
| 1777960922 | 14.44° C | 66% | 1011.6 hPa | 0 mm | 1.79 m/s, 327° | 177 W/m² | - |
| 1777960622 | 13.89° C | 65% | 1011.7 hPa | 0 mm | 1.34 m/s, 323° | 336 W/m² | - |
| 1777960322 | 13.33° C | 68% | 1011.7 hPa | 0 mm | 2.24 m/s, 26° | 453 W/m² | - |
| 1777959722 | 12.78° C | 74% | 1011.5 hPa | 0 mm | 1.79 m/s, 356° | 413 W/m² | - |
| 1777959422 | 12.22° C | 77% | 1011.2 hPa | 0 mm | 0.45 m/s, 28° | 200 W/m² | - |
| 1777959122 | 12.22° C | 77% | 1011.7 hPa | 0 mm | 0.89 m/s, 359° | 180 W/m² | - |
* Rain latest hour (hover to see other rain measurements)
** Current wind speed in m/s (hover to see current wind gust speed)